Location: Eferding
(48.3167°N, 14.0167°E)
Time: 11:08:55
(UTC+00:00)

Ariane Rocket - Pass Details

Date: 12 November 2019
Orbit: 759 x 771 km, 98.7° (Epoch: 08 December)

Event Time Altitude Azimuth Distance (km) Brightness Sun altitude
Exits shadow 17:25:08 36° 101° (E) 1,206 3.5 -19.2°
Maximum altitude 17:26:21 42° 67° (ENE) 1,091 3.3 -19.4°
Drops below altitude 10° 17:31:07 10° 357° (N) 2,319 5.5 -20.2°
Sets 17:33:32 0° 351° (N) 3,248 6.3 -20.6°
